Find Local Weather

World > North America > United States > Ohio

Enon Beach Recreation Park, Ohio Regional Weather

Enon Road and Interstate, Donnelsville, OH 45319
Lat: 39.92N, Lon: 83.95W
Wx Zone: OHZ053
Warning FLW WEATHER ALERT - WINTER STORM WARNING (More Info. Click Here) Warning
Feedback
Expires:201901190700;;580668
ASUS41 KCLE 190612
RWRCLE
OHIO REGIONAL WEATHER ROUNDUP
NATIONAL WEATHER SERVICE WILMINGTON, OH
100 AM EST SAT JAN 19 2019

NOTE: "FAIR" INDICATES FEW OR NO CLOUDS BELOW 12,000 FEET WITH NO
SIGNIFICANT WEATHER AND/OR OBSTRUCTIONS TO VISIBILITY.


OHZ042-051>053-060>062-070>072-077>081-190700-
  SOUTHWEST OHIO
  
CITY           SKY/WX    TMP DP  RH WIND       PRES   REMARKS
CINC-COVINGTON CLOUDY    35  31  85 E10       30.00F WCI  27          
CINC-LUNKEN    CLOUDY    36  31  82 E5        30.03F                  
HAMILTON       CLOUDY    34  30  85 E13       30.03F WCI  25          
DAYTON         CLOUDY    34  28  79 E14       30.02F WCI  25          
WRIGHT-PAT AFB CLOUDY    34  27  77 E13       30.03F WCI  25          
DAYTON GENERAL CLOUDY    34  28  79 E12       30.00F WCI  25          
WILMINGTON     CLOUDY    32  28  85 E9        30.03F WCI  24          
$$


SKY/WX - Weather  TMP - Temperature  DP - Dew Point  RH - Relative Humidity
WIND - Wind Direction/Speed PRES - Barometric Pressure